Adak, AK

4:41 AM HDT on April 28, 2017 (GMT -0900)
Adak

Weather History for PADK - July, 2013

Change the Weather History Date:

Tuesday, July 2, 2013

  Actual Average Record
Temperature  
Mean Temperature 44 °F -  
Max Temperature 46 °F 51 °F 65 °F (1967)
Min Temperature 42 °F 43 °F 39 °F (1952)
Degree Days  
Heating Degree Days 21    
Moisture  
Dew Point 41 °F    
Average Humidity 88    
Maximum Humidity 93    
Minimum Humidity 71    
Precipitation  
Precipitation 0.04 in - - ()
Sea Level Pressure  
Sea Level Pressure 29.83 in    
Wind  
Wind Speed 21 mph (WSW)    
Max Wind Speed 32 mph    
Max Gust Speed 41 mph    
Visibility 7 miles    
Events      
Averages and records for this station are not official NWS values.
T = Trace of Precipitation, MM = Missing Value Source: NWS Daily Summary

Daily Weather History Graph

Daily Weather History Graph

Search for Another Location

Airport or City:

Trip Planner

Search our weather history database for the weather conditions in past years. The results will help you decide how hot, cold, wet, or windy it might be!

Date:

Astronomy

Jul. 02, 2013 Rise Set
Actual Time 6:32 AM HDT 11:08 PM HDT
Civil Twilight 5:44 AM HDT 11:56 PM HDT
Nautical Twilight 4:30 AM HDT 1:09 AM HDT
Astronomical Twilight 3:23 AM HDT 2:18 AM HDT
Moon 3:05 AM HDT (7/2) 6:19 PM HDT (7/2)
Length of Visible Light 18h 11m
Length of Day
16h 35m
Waning Crescent, 25% of the Moon is Illuminated
Jul 2
Waning Crescent
Jul 7
New
Jul 15
First Quarter
Jul 22
Full
Jul 29
Last Quarter

Hourly Weather History & Observations

Time (HDT) Temp. Windchill Dew Point Humidity Pressure Visibility Wind Dir Wind Speed Gust Speed Precip Events Conditions
12:16 AM 44.6 °F 36.4 °F 39.2 °F 81% 29.92 in 10.0 mi West 20.7 mph - N/A   Clear
12:36 AM 44.6 °F 37.2 °F 39.2 °F 81% 29.93 in 10.0 mi West 17.3 mph 20.7 mph N/A   Clear
12:56 AM 46.4 °F 39.5 °F 39.2 °F 76% 29.94 in 10.0 mi West 17.3 mph 23.0 mph N/A   Clear
1:16 AM 48.2 °F - 39.2 °F 71% 29.94 in 10.0 mi WNW 8.1 mph - N/A   Partly Cloudy
1:36 AM 48.2 °F - 39.2 °F 71% 29.94 in 10.0 mi WSW 10.4 mph - N/A   Scattered Clouds
1:56 AM 46.4 °F 39.2 °F 39.2 °F 76% 29.94 in 10.0 mi West 18.4 mph - N/A   Partly Cloudy
2:16 AM 44.6 °F 36.9 °F 39.2 °F 81% 29.94 in 10.0 mi West 18.4 mph - N/A   Clear
2:36 AM 44.6 °F 37.4 °F 39.2 °F 81% 29.93 in 10.0 mi West 16.1 mph - N/A   Scattered Clouds
2:56 AM 44.6 °F 36.9 °F 39.2 °F 81% 29.92 in 10.0 mi West 18.4 mph - N/A   Scattered Clouds
3:16 AM 44.6 °F 36.1 °F 39.2 °F 81% 29.92 in 10.0 mi West 21.9 mph 31.1 mph N/A   Partly Cloudy
3:36 AM 44.6 °F 36.6 °F 39.2 °F 81% 29.92 in 10.0 mi West 19.6 mph 25.3 mph N/A   Mostly Cloudy
3:56 AM 44.6 °F 35.3 °F 39.2 °F 81% 29.91 in 10.0 mi West 26.5 mph 32.2 mph N/A   Overcast
4:16 AM 44.6 °F 36.9 °F 39.2 °F 81% 29.92 in 10.0 mi West 18.4 mph 29.9 mph N/A   Mostly Cloudy
4:36 AM 42.8 °F 35.8 °F 39.2 °F 87% 29.90 in 10.0 mi WSW 13.8 mph 20.7 mph N/A   Mostly Cloudy
4:56 AM 44.6 °F 37.4 °F 41.0 °F 87% 29.90 in 10.0 mi WSW 16.1 mph 23.0 mph N/A   Mostly Cloudy
5:16 AM 42.8 °F 33.1 °F 39.2 °F 87% 29.90 in 10.0 mi West 25.3 mph 29.9 mph N/A   Mostly Cloudy
5:36 AM 42.8 °F 35.1 °F 39.2 °F 87% 29.90 in 6.0 mi WSW 16.1 mph 21.9 mph N/A   Overcast
5:56 AM 42.8 °F 34.8 °F 39.2 °F 87% 29.89 in 10.0 mi West 17.3 mph 27.6 mph N/A   Scattered Clouds
6:16 AM 42.8 °F 34.5 °F 39.2 °F 87% 29.88 in 10.0 mi West 18.4 mph 25.3 mph N/A   Scattered Clouds
6:36 AM 42.8 °F 34.5 °F 39.2 °F 87% 29.88 in 4.0 mi West 18.4 mph 26.5 mph N/A   Mostly Cloudy
6:56 AM 42.8 °F 32.9 °F 39.2 °F 87% 29.87 in 5.0 mi WSW 26.5 mph 33.4 mph N/A   Overcast
7:16 AM 42.8 °F 32.9 °F 39.2 °F 87% 29.88 in 2.5 mi WSW 26.5 mph 32.2 mph N/A   Overcast
7:36 AM 42.8 °F 34.0 °F 39.2 °F 87% 29.88 in 4.0 mi WSW 20.7 mph 28.8 mph N/A   Overcast
7:56 AM 42.8 °F 34.3 °F 39.2 °F 87% 29.88 in 4.0 mi WSW 19.6 mph 29.9 mph N/A   Overcast
8:16 AM 42.8 °F 34.3 °F 39.2 °F 87% 29.87 in 5.0 mi WSW 19.6 mph 28.8 mph N/A   Overcast
8:36 AM 42.8 °F 34.8 °F 41.0 °F 93% 29.87 in 6.0 mi West 17.3 mph 25.3 mph N/A   Overcast
8:56 AM 42.8 °F 34.0 °F 41.0 °F 93% 29.86 in 8.0 mi WSW 20.7 mph 28.8 mph N/A   Overcast
9:16 AM 42.8 °F 33.3 °F 41.0 °F 93% 29.86 in 7.0 mi WSW 24.2 mph 32.2 mph N/A   Overcast
9:36 AM 42.8 °F 33.8 °F 41.0 °F 93% 29.86 in 10.0 mi WSW 21.9 mph 29.9 mph N/A   Overcast
9:56 AM 42.8 °F 33.1 °F 41.0 °F 93% 29.86 in 9.0 mi WSW 25.3 mph 33.4 mph N/A   Overcast
10:16 AM 42.8 °F 33.1 °F 41.0 °F 93% 29.85 in 6.0 mi WSW 25.3 mph 34.5 mph N/A   Overcast
10:36 AM 44.6 °F 35.7 °F 41.0 °F 87% 29.84 in 5.0 mi WSW 24.2 mph 32.2 mph N/A   Overcast
10:56 AM 44.6 °F 36.1 °F 41.0 °F 87% 29.84 in 8.0 mi WSW 21.9 mph 29.9 mph N/A   Overcast
11:16 AM 44.6 °F 35.1 °F 41.0 °F 87% 29.84 in 9.0 mi WSW 27.6 mph 33.4 mph N/A   Overcast
11:36 AM 44.6 °F 35.3 °F 41.0 °F 87% 29.85 in 8.0 mi WSW 26.5 mph 33.4 mph N/A   Overcast
11:56 AM 44.6 °F 35.9 °F 41.0 °F 87% 29.84 in 10.0 mi WSW 23.0 mph 32.2 mph N/A   Overcast
12:16 PM 44.6 °F 35.5 °F 42.8 °F 93% 29.83 in 10.0 mi WSW 25.3 mph 31.1 mph N/A   Overcast
12:36 PM 44.6 °F 34.9 °F 41.0 °F 87% 29.82 in 10.0 mi WSW 28.8 mph 35.7 mph N/A   Overcast
12:56 PM 44.6 °F 34.4 °F 42.8 °F 93% 29.82 in 10.0 mi WSW 32.2 mph 41.4 mph N/A   Overcast
1:16 PM 44.6 °F 34.6 °F 42.8 °F 93% 29.82 in 8.0 mi WSW 31.1 mph 35.7 mph N/A   Overcast
1:36 PM 44.6 °F 34.7 °F 42.8 °F 93% 29.82 in 6.0 mi WSW 29.9 mph 34.5 mph 0.01 in   Overcast
1:56 PM 44.6 °F 35.3 °F 42.8 °F 93% 29.82 in 6.0 mi WSW 26.5 mph - 0.03 in   Mostly Cloudy
2:16 PM 44.6 °F 34.7 °F 42.8 °F 93% 29.80 in 9.0 mi WSW 29.9 mph 35.7 mph 0.01 in   Mostly Cloudy
2:36 PM 44.6 °F 34.7 °F 42.8 °F 93% 29.79 in 9.0 mi WSW 29.9 mph - 0.01 in   Mostly Cloudy
2:56 PM 46.4 °F 36.9 °F 42.8 °F 87% 29.78 in 10.0 mi WSW 32.2 mph - 0.02 in   Overcast
3:16 PM 46.4 °F 37.5 °F 44.6 °F 93% 29.79 in 10.0 mi WSW 27.6 mph - N/A   Overcast
3:36 PM 46.4 °F 37.0 °F 44.6 °F 93% 29.78 in 10.0 mi WSW 31.1 mph 34.5 mph N/A   Overcast
3:56 PM 46.4 °F 36.9 °F 44.6 °F 93% 29.78 in 10.0 mi WSW 32.2 mph - N/A   Overcast
4:16 PM 44.6 °F 34.9 °F 42.8 °F 93% 29.77 in 3.0 mi WSW 28.8 mph 39.1 mph 0.02 in   Overcast
4:36 PM 46.4 °F 37.5 °F 44.6 °F 93% 29.77 in 10.0 mi WSW 27.6 mph 33.4 mph 0.02 in   Overcast
4:56 PM 44.6 °F 35.5 °F 42.8 °F 93% 29.77 in 7.0 mi WSW 25.3 mph 32.2 mph 0.02 in   Overcast
5:16 PM 46.4 °F 37.4 °F 44.6 °F 93% 29.76 in 10.0 mi WSW 28.8 mph 32.2 mph N/A   Overcast
5:36 PM 46.4 °F 37.7 °F 42.8 °F 87% 29.76 in 10.0 mi WSW 26.5 mph 36.8 mph N/A   Overcast
5:56 PM 46.4 °F 38.1 °F 42.8 °F 87% 29.75 in 10.0 mi SW 24.2 mph 32.2 mph N/A   Overcast
6:36 PM 46.4 °F 37.0 °F 44.6 °F 93% 29.73 in 10.0 mi WSW 31.1 mph - N/A   Overcast
6:56 PM 46.4 °F 37.9 °F 42.8 °F 87% 29.74 in 10.0 mi WSW 25.3 mph 32.2 mph N/A   Overcast
7:16 PM 44.6 °F 35.9 °F 42.8 °F 93% 29.75 in 8.0 mi WSW 23.0 mph 28.8 mph N/A   Overcast
7:36 PM 44.6 °F 36.1 °F 42.8 °F 93% 29.76 in 7.0 mi WSW 21.9 mph 32.2 mph N/A   Overcast
7:56 PM 44.6 °F 36.6 °F 42.8 °F 93% 29.76 in 2.0 mi SW 19.6 mph - N/A   Overcast
8:16 PM 44.6 °F 36.6 °F 42.8 °F 93% 29.76 in 2.0 mi SW 19.6 mph - N/A   Overcast
8:36 PM 44.6 °F 37.2 °F 42.8 °F 93% 29.76 in 1.8 mi WSW 17.3 mph - N/A   Overcast
8:56 PM 44.6 °F 37.4 °F 42.8 °F 93% 29.75 in 1.2 mi SW 16.1 mph 20.7 mph N/A   Overcast
9:16 PM 44.6 °F 37.4 °F 42.8 °F 93% 29.75 in 2.0 mi WSW 16.1 mph - N/A   Overcast
9:36 PM 44.6 °F 37.2 °F 42.8 °F 93% 29.76 in 2.0 mi WSW 17.3 mph - N/A   Overcast
9:56 PM 44.6 °F 37.4 °F 42.8 °F 93% 29.77 in 3.0 mi WSW 16.1 mph 24.2 mph N/A   Overcast
10:16 PM 44.6 °F 36.6 °F 42.8 °F 93% 29.77 in 3.0 mi WSW 19.6 mph 27.6 mph N/A   Overcast
10:36 PM 44.6 °F 36.9 °F 42.8 °F 93% 29.78 in 1.5 mi WSW 18.4 mph 21.9 mph N/A   Overcast
10:56 PM 44.6 °F 37.8 °F 42.8 °F 93% 29.78 in 2.0 mi SW 15.0 mph - N/A   Overcast
11:16 PM 44.6 °F 37.2 °F 42.8 °F 93% 29.78 in 1.5 mi WSW 17.3 mph - N/A   Overcast
11:36 PM 44.6 °F 36.9 °F 42.8 °F 93% 29.79 in 3.0 mi WSW 18.4 mph - N/A   Overcast
11:56 PM 44.6 °F 37.4 °F 42.8 °F 93% 29.79 in 3.0 mi WSW 16.1 mph - N/A   Overcast